Home   Weather   Weno   Past weeks

Flag for Micronesia Past Weather in Weno, Truk, Micronesia — Yesterday and Last 2 Weeks

Now
77 °F

Sprinkles. Mostly cloudy.


Feels Like: 79 °F
Forecast: 80 / 86 °F
Wind: 12 mph from East

Location: Truk Intl / Moen Island

Current Time: Dec 5, 2016 at 2:39:55 pm

Latest Report: Dec 5, 2016 at 1:54 pm


Visibility: 8 mi

Pressure: 29.73 "Hg

Humidity: 99%

Dew Point: 77 °F

Location of WenoLocation

Past Weather in Weno — Graph

°F

Weno Temperature Yesterday

Maximum temperature yesterday: 89 °F (at 11:50 am)
Minimum temperature yesterday: 78 °F (at 5:50 pm)
Average temperature yesterday: 82 °F

High & Low Weather Summary for the Past Weeks

 TemperatureHumidityPressure
High90 °F (Nov 21, 11:50 am)100% (Nov 26, 8:53 pm)29.91 "Hg (Nov 26, 8:53 pm)
Low74 °F (Dec 1, 9:50 am)67% (Nov 30, 3:50 pm)29.66 "Hg (Nov 24, 12:50 pm)
Average84 °F85%29.77 "Hg
* Reported Nov 20 1:59 pm — Dec 5 1:02 pm, Weno, Weather by CustomWeather, © 2016

Note: Actual official high and low records may vary slightly from our data, if they occured in-between our weather recording intervals... More about our weather records

Advertising

Weno Weather History for the Previous 24 Hours

Scroll right to see more
 ConditionsComfort  
Time TempWeatherWind HumidityBarometerVisibility
1:02 pm
Mon, Dec 5
81 °FSprinkles. More clouds than sun.12 mph94%29.74 "Hg12 mi
12:50 pm82 °FRain showers. Mostly cloudy.12 mph89%29.75 "Hg5 mi
11:52 am85 °FScattered showers. More clouds than sun.12 mph89%29.75 "Hg14 mi
10:51 am85 °FMore clouds than sun.9 mph89%29.78 "Hg15 mi
9:50 am80 °FOvercast.8 mph93%29.80 "Hg15 mi
8:50 am84 °FCloudy.9 mph87%29.83 "Hg15 mi
7:53 am82 °FMostly cloudy.8 mph93%29.80 "Hg15 mi
6:50 am82 °FCloudy.9 mph90%29.78 "Hg15 mi
5:52 am81 °FMore clouds than sun.9 mph96%29.78 "Hg15 mi
4:53 am81 °FOvercast.9 mph93%29.73 "Hg15 mi
3:54 am81 °FPartly cloudy.9 mph99%29.74 "Hg15 mi
2:54 am82 °FPartly cloudy.10 mph92%29.75 "Hg15 mi
1:54 am79 °FSprinkles. Mostly cloudy.6 mph100%29.76 "Hg14 mi
12:52 am80 °FMostly cloudy.9 mph100%29.78 "Hg15 mi
11:52 pm
Sun, Dec 4
79 °FSprinkles. Mostly cloudy.9 mph100%29.79 "Hg14 mi
10:56 pm80 °FSprinkles. Overcast.9 mph98%29.79 "Hg14 mi
9:54 pm80 °FMostly cloudy.7 mph99%29.82 "Hg15 mi
8:56 pm82 °FMostly cloudy.5 mph89%29.81 "Hg15 mi
7:51 pm78 °FLight rain. Mostly cloudy.5 mph97%29.83 "Hg8 mi
6:50 pm78 °FSprinkles. Mostly cloudy.5 mph88%29.80 "Hg8 mi
5:50 pm78 °FSprinkles. Mostly cloudy.5 mph89%29.79 "Hg8 mi
4:52 pm84 °FCloudy.5 mph94%29.76 "Hg14 mi
3:51 pm83 °FSprinkles. More clouds than sun.5 mph96%29.73 "Hg13 mi
2:54 pm81 °FSprinkles. More clouds than sun.6 mph96%29.73 "Hg13 mi
Weather by CustomWeather, © 2016

See weather overviewHow to use our weather pages